SWA2901 KCLT-KOKC

Flight info

Callsign SWA2901
Flight time 2h 14m
Altitude 32000
Route BOBZY5 BNA J46 PLIED DRLER MURAH3
Aircraft B38M/M-SDE1FGHILORVWXY/HB1

Departure

Time 2026-04-26 22:15
Airport Charlotte Douglas International Airport (KCLT)

Arrival

Time 2026-04-27 00:30
Airport OKC Will Rogers World Airport (KOKC)
Time Latitude Longitude Altitude Speed Heading
2026-04-26 21:36 35.22120 -80.93987 735 ft 0 kts 176°
2026-04-26 22:02 35.22125 -80.93987 735 ft 3 kts 174°
2026-04-26 22:02 35.22147 -80.93994 733 ft 3 kts 148°
2026-04-26 22:02 35.22162 -80.94012 733 ft 3 kts 116°
2026-04-26 22:02 35.22168 -80.94038 734 ft 3 kts 93°
2026-04-26 22:03 35.22167 -80.94065 735 ft 3 kts 78°
2026-04-26 22:03 35.22165 -80.94077 735 ft 1 kts 75°
2026-04-26 22:10 35.22176 -80.94026 735 ft 9 kts 78°
2026-04-26 22:10 35.22189 -80.93946 735 ft 10 kts 79°
2026-04-26 22:10 35.22192 -80.93917 735 ft 0 kts 85°
2026-04-26 22:11 35.22193 -80.93884 735 ft 10 kts 86°
2026-04-26 22:11 35.22183 -80.93756 734 ft 17 kts 122°
2026-04-26 22:11 35.22084 -80.93720 735 ft 16 kts 174°
2026-04-26 22:12 35.21940 -80.93707 735 ft 26 kts 177°
2026-04-26 22:12 35.21740 -80.93691 736 ft 33 kts 175°
2026-04-26 22:12 35.21490 -80.93665 735 ft 39 kts 177°
2026-04-26 22:12 35.21200 -80.93644 735 ft 44 kts 174°
2026-04-26 22:13 35.20875 -80.93612 735 ft 49 kts 175°
2026-04-26 22:13 35.20620 -80.93597 735 ft 38 kts 174°
2026-04-26 22:13 35.20340 -80.93569 735 ft 43 kts 176°
2026-04-26 22:13 35.20140 -80.93548 735 ft 18 kts 170°
2026-04-26 22:14 35.20101 -80.93509 735 ft 2 kts 91°
2026-04-26 22:14 35.20101 -80.93494 736 ft 4 kts 84°
2026-04-26 22:14 35.20141 -80.93425 736 ft 17 kts 18°
2026-04-26 22:14 35.20332 -80.93438 739 ft 51 kts 356°
2026-04-26 22:15 35.20916 -80.93484 736 ft 115 kts 355°
2026-04-26 22:15 35.21899 -80.93561 739 ft 165 kts 356°
2026-04-26 22:15 35.23145 -80.93723 1005 ft 188 kts 356°
2026-04-26 22:15 35.24421 -80.93680 1835 ft 175 kts 18°
2026-04-26 22:16 35.25588 -80.93364 2629 ft 172 kts 17°
2026-04-26 22:16 35.26822 -80.93042 3035 ft 192 kts 18°
2026-04-26 22:16 35.28189 -80.92651 3453 ft 213 kts 13°
2026-04-26 22:16 35.29724 -80.92876 3915 ft 236 kts 340°
2026-04-26 22:17 35.31085 -80.94145 4381 ft 260 kts 311°
2026-04-26 22:17 35.31779 -80.96189 5346 ft 255 kts 280°
2026-04-26 22:17 35.31882 -80.98416 5939 ft 276 kts 274°
2026-04-26 22:17 35.31789 -81.00871 6427 ft 285 kts 266°
2026-04-26 22:18 35.31366 -81.03197 7527 ft 282 kts 257°
2026-04-26 22:18 35.30839 -81.05565 8033 ft 294 kts 257°
2026-04-26 22:18 35.30212 -81.07962 8766 ft 298 kts 251°
2026-04-26 22:18 35.29521 -81.10387 9376 ft 306 kts 252°
2026-04-26 22:19 35.28841 -81.12867 10093 ft 309 kts 256°
2026-04-26 22:19 35.28334 -81.15489 10469 ft 325 kts 258°
2026-04-26 22:19 35.27805 -81.18254 10809 ft 342 kts 257°
2026-04-26 22:19 35.27238 -81.21127 11325 ft 350 kts 257°
2026-04-26 22:20 35.26654 -81.24034 12065 ft 354 kts 257°
2026-04-26 22:20 35.26261 -81.25974 12490 ft 357 kts 257°
2026-04-26 22:20 35.25451 -81.29948 13455 ft 363 kts 256°
2026-04-26 22:20 35.24835 -81.32961 14146 ft 367 kts 256°
2026-04-26 22:21 35.24214 -81.35994 14907 ft 368 kts 257°
2026-04-26 22:21 35.23592 -81.39028 15674 ft 369 kts 257°
2026-04-26 22:21 35.22965 -81.42083 16375 ft 372 kts 257°
2026-04-26 22:21 35.22331 -81.45161 17109 ft 373 kts 258°
2026-04-26 22:22 35.21696 -81.48240 17857 ft 374 kts 257°
2026-04-26 22:22 35.21059 -81.51327 18523 ft 375 kts 258°
2026-04-26 22:22 35.20419 -81.54425 19120 ft 376 kts 258°
2026-04-26 22:22 35.19782 -81.57508 19909 ft 372 kts 259°
2026-04-26 22:23 35.19145 -81.60581 20516 ft 374 kts 259°
2026-04-26 22:23 35.18593 -81.63688 21062 ft 373 kts 268°
2026-04-26 22:23 35.18510 -81.66852 21615 ft 374 kts 271°
2026-04-26 22:23 35.18434 -81.70034 22174 ft 375 kts 271°
2026-04-26 22:24 35.18365 -81.73191 22711 ft 378 kts 271°
2026-04-26 22:24 35.18296 -81.76448 23258 ft 380 kts 271°
2026-04-26 22:24 35.18229 -81.79644 23745 ft 382 kts 271°
2026-04-26 22:24 35.18161 -81.82891 24184 ft 383 kts 271°
2026-04-26 22:25 35.18092 -81.86157 24622 ft 385 kts 272°
2026-04-26 22:25 35.18020 -81.89479 25055 ft 387 kts 272°
2026-04-26 22:25 35.17949 -81.92729 25472 ft 389 kts 272°
2026-04-26 22:25 35.17876 -81.96040 25894 ft 391 kts 272°
2026-04-26 22:26 35.17802 -81.99367 26290 ft 393 kts 272°
2026-04-26 22:26 35.17726 -82.02711 26692 ft 394 kts 272°
2026-04-26 22:26 35.17649 -82.06065 27092 ft 396 kts 272°
2026-04-26 22:26 35.17571 -82.09444 27479 ft 398 kts 272°
2026-04-26 22:27 35.17491 -82.12829 27861 ft 400 kts 272°
2026-04-26 22:27 35.17411 -82.16237 28240 ft 402 kts 273°
2026-04-26 22:27 35.17342 -82.19661 28589 ft 403 kts 276°
2026-04-26 22:27 35.17788 -82.22992 28930 ft 397 kts 290°
2026-04-26 22:28 35.18551 -82.26250 29261 ft 400 kts 288°
2026-04-26 22:28 35.19296 -82.29536 29625 ft 402 kts 289°
2026-04-26 22:28 35.20057 -82.32822 30048 ft 402 kts 289°
2026-04-26 22:28 35.20825 -82.36098 30452 ft 400 kts 289°
2026-04-26 22:29 35.21593 -82.39362 30866 ft 398 kts 289°
2026-04-26 22:29 35.22357 -82.42607 31306 ft 396 kts 290°
2026-04-26 22:29 35.23115 -82.45832 31733 ft 393 kts 290°
2026-04-26 22:29 35.23871 -82.49050 31973 ft 394 kts 290°
2026-04-26 22:30 35.25369 -82.55438 32009 ft 389 kts 290°
2026-04-26 22:30 35.26858 -82.61806 32024 ft 389 kts 290°
2026-04-26 22:31 35.28344 -82.68175 32025 ft 390 kts 290°
2026-04-26 22:31 35.29825 -82.74537 32010 ft 391 kts 290°
2026-04-26 22:32 35.31311 -82.80940 31988 ft 390 kts 290°
2026-04-26 22:32 35.32791 -82.87337 31993 ft 391 kts 289°
2026-04-26 22:33 35.35004 -82.96928 31953 ft 390 kts 289°
2026-04-26 22:34 35.36475 -83.03324 31980 ft 390 kts 290°
2026-04-26 22:34 35.37940 -83.09713 31982 ft 390 kts 289°
2026-04-26 22:35 35.39403 -83.16105 31955 ft 390 kts 289°
2026-04-26 22:35 35.40620 -83.21436 31959 ft 386 kts 289°
2026-04-26 22:36 35.42049 -83.27735 31977 ft 387 kts 289°
2026-04-26 22:36 35.43487 -83.34093 31975 ft 386 kts 289°
2026-04-26 22:37 35.44916 -83.40430 31981 ft 386 kts 289°
2026-04-26 22:37 35.46344 -83.46774 31977 ft 386 kts 289°
2026-04-26 22:38 35.47764 -83.53104 31980 ft 385 kts 289°
2026-04-26 22:38 35.49183 -83.59443 31960 ft 384 kts 289°
2026-04-26 22:39 35.50591 -83.65752 32019 ft 385 kts 289°
2026-04-26 22:39 35.52003 -83.72092 31962 ft 385 kts 289°
2026-04-26 22:40 35.53412 -83.78440 31970 ft 386 kts 289°
2026-04-26 22:40 35.54817 -83.84789 31972 ft 385 kts 289°
2026-04-26 22:41 35.56219 -83.91137 31968 ft 385 kts 288°
2026-04-26 22:41 35.57614 -83.97475 31977 ft 385 kts 289°
2026-04-26 22:42 35.59008 -84.03821 31977 ft 384 kts 288°
2026-04-26 22:42 35.60397 -84.10165 31972 ft 385 kts 288°
2026-04-26 22:43 35.61783 -84.16513 31981 ft 385 kts 288°
2026-04-26 22:43 35.63171 -84.22883 31972 ft 386 kts 288°
2026-04-26 22:44 35.64555 -84.29256 31949 ft 386 kts 288°
2026-04-26 22:44 35.65932 -84.35616 31965 ft 385 kts 288°
2026-04-26 22:45 35.67309 -84.41988 31984 ft 385 kts 288°
2026-04-26 22:45 35.68680 -84.48353 31982 ft 385 kts 288°
2026-04-26 22:46 35.70049 -84.54728 31981 ft 385 kts 288°
2026-04-26 22:46 35.71414 -84.61101 31984 ft 385 kts 288°
2026-04-26 22:47 35.72778 -84.67486 31966 ft 385 kts 288°
2026-04-26 22:47 35.74135 -84.73861 31982 ft 385 kts 288°
2026-04-26 22:48 35.75489 -84.80234 31991 ft 385 kts 288°
2026-04-26 22:48 35.76839 -84.86607 32004 ft 385 kts 288°
2026-04-26 22:49 35.78186 -84.92989 31988 ft 385 kts 288°
2026-04-26 22:49 35.79531 -84.99375 31988 ft 385 kts 288°
2026-04-26 22:50 35.80863 -85.05718 31985 ft 385 kts 288°
2026-04-26 22:50 35.82202 -85.12106 31994 ft 385 kts 288°
2026-04-26 22:51 35.83539 -85.18501 31990 ft 385 kts 288°
2026-04-26 22:51 35.84871 -85.24894 31994 ft 385 kts 288°
2026-04-26 22:52 35.86190 -85.31283 31985 ft 385 kts 288°
2026-04-26 22:52 35.87510 -85.37685 31984 ft 385 kts 287°
2026-04-26 22:53 35.88827 -85.44085 31972 ft 385 kts 287°
2026-04-26 22:53 35.90139 -85.50483 31977 ft 385 kts 287°
2026-04-26 22:54 35.91450 -85.56890 31987 ft 385 kts 287°
2026-04-26 22:54 35.92758 -85.63301 31983 ft 385 kts 287°
2026-04-26 22:55 35.94061 -85.69711 31980 ft 385 kts 287°
2026-04-26 22:55 35.95358 -85.76108 31982 ft 384 kts 287°
2026-04-26 22:56 35.96655 -85.82520 31985 ft 385 kts 287°
2026-04-26 22:56 35.97948 -85.88926 31987 ft 385 kts 286°
2026-04-26 22:57 35.99240 -85.95344 31977 ft 385 kts 286°
2026-04-26 22:57 36.00528 -86.01759 31985 ft 385 kts 286°
2026-04-26 22:58 36.01813 -86.08180 31983 ft 385 kts 287°
2026-04-26 22:58 36.03094 -86.14596 31983 ft 385 kts 286°
2026-04-26 22:59 36.04374 -86.21029 31965 ft 388 kts 285°
2026-04-26 22:59 36.05669 -86.27561 31957 ft 399 kts 285°
2026-04-26 23:00 36.06997 -86.34272 31975 ft 399 kts 285°
2026-04-26 23:00 36.08303 -86.40897 31982 ft 399 kts 285°
2026-04-26 23:01 36.09613 -86.47564 31977 ft 399 kts 285°
2026-04-26 23:01 36.10919 -86.54231 31995 ft 400 kts 285°
2026-04-26 23:02 36.12223 -86.60908 31965 ft 398 kts 285°
2026-04-26 23:02 36.13509 -86.67565 31968 ft 398 kts 283°
2026-04-26 23:02 36.13707 -86.70992 31981 ft 401 kts 272°
2026-04-26 23:03 36.13740 -86.74442 31946 ft 402 kts 274°
2026-04-26 23:03 36.13834 -86.81356 31955 ft 402 kts 274°
2026-04-26 23:04 36.13906 -86.88278 31956 ft 402 kts 274°
2026-04-26 23:04 36.13971 -86.95183 31944 ft 402 kts 274°
2026-04-26 23:05 36.14033 -87.02088 31953 ft 401 kts 274°
2026-04-26 23:05 36.14091 -87.08984 31941 ft 401 kts 274°
2026-04-26 23:06 36.14144 -87.15884 31953 ft 401 kts 274°
2026-04-26 23:06 36.14194 -87.22779 31960 ft 401 kts 274°
2026-04-26 23:07 36.14239 -87.29677 31954 ft 401 kts 274°
2026-04-26 23:07 36.14281 -87.36570 31951 ft 400 kts 273°
2026-04-26 23:08 36.14319 -87.43445 31957 ft 401 kts 273°
2026-04-26 23:08 36.14352 -87.50340 31958 ft 400 kts 273°
2026-04-26 23:09 36.14382 -87.57225 31956 ft 400 kts 273°
2026-04-26 23:09 36.14408 -87.64112 31953 ft 400 kts 273°
2026-04-26 23:10 36.14430 -87.70997 31941 ft 400 kts 273°
2026-04-26 23:10 36.14448 -87.77868 31950 ft 399 kts 273°
2026-04-26 23:11 36.14462 -87.84726 31954 ft 399 kts 273°
2026-04-26 23:11 36.14472 -87.91585 31951 ft 399 kts 273°
2026-04-26 23:12 36.14478 -87.98439 31949 ft 399 kts 273°
2026-04-26 23:12 36.14480 -88.05295 31953 ft 398 kts 273°
2026-04-26 23:13 36.14479 -88.12096 31949 ft 397 kts 273°
2026-04-26 23:13 36.14473 -88.18911 31944 ft 396 kts 273°
2026-04-26 23:14 36.14464 -88.25726 31945 ft 396 kts 273°
2026-04-26 23:14 36.14451 -88.32536 31941 ft 396 kts 273°
2026-04-26 23:15 36.14434 -88.39401 31935 ft 405 kts 273°
2026-04-26 23:15 36.14414 -88.46470 31933 ft 415 kts 273°
2026-04-26 23:16 36.14389 -88.53604 31941 ft 414 kts 273°
2026-04-26 23:16 36.14356 -88.60722 31944 ft 414 kts 273°
2026-04-26 23:17 36.14321 -88.67837 31941 ft 414 kts 273°
2026-04-26 23:17 36.14283 -88.74953 31938 ft 414 kts 273°
2026-04-26 23:18 36.14240 -88.82072 31926 ft 414 kts 273°
2026-04-26 23:18 36.14194 -88.89185 31924 ft 413 kts 272°
2026-04-26 23:19 36.14143 -88.96267 31930 ft 412 kts 272°
2026-04-26 23:19 36.14088 -89.03358 31930 ft 412 kts 272°
2026-04-26 23:20 36.14029 -89.10395 31932 ft 412 kts 272°
2026-04-26 23:20 36.13977 -89.16321 31926 ft 411 kts 272°
2026-04-26 23:21 36.13899 -89.24553 31926 ft 412 kts 272°
2026-04-26 23:21 36.13827 -89.31664 31928 ft 413 kts 272°
2026-04-26 23:22 36.13764 -89.37565 31926 ft 413 kts 272°
2026-04-26 23:22 36.13684 -89.44674 31926 ft 413 kts 272°
2026-04-26 23:23 36.13601 -89.51773 31923 ft 413 kts 272°
2026-04-26 23:23 36.13513 -89.58887 31921 ft 413 kts 272°
2026-04-26 23:24 36.13421 -89.65991 31908 ft 413 kts 271°
2026-04-26 23:24 36.13324 -89.73103 31899 ft 413 kts 271°
2026-04-26 23:25 36.13224 -89.80210 31897 ft 413 kts 271°
2026-04-26 23:25 36.13119 -89.87318 31899 ft 413 kts 271°
2026-04-26 23:26 36.13010 -89.94433 31899 ft 413 kts 271°
2026-04-26 23:26 36.12899 -90.01543 31887 ft 413 kts 271°
2026-04-26 23:27 36.12782 -90.08643 31896 ft 413 kts 271°
2026-04-26 23:27 36.12656 -90.15735 31895 ft 413 kts 271°
2026-04-26 23:28 36.12528 -90.22782 31894 ft 413 kts 271°
2026-04-26 23:28 36.12398 -90.29875 31894 ft 413 kts 271°
2026-04-26 23:29 36.12264 -90.36969 31895 ft 413 kts 271°
2026-04-26 23:29 36.12125 -90.44080 31894 ft 413 kts 271°
2026-04-26 23:30 36.11983 -90.51190 31893 ft 413 kts 271°
2026-04-26 23:30 36.11836 -90.58290 31895 ft 413 kts 271°
2026-04-26 23:31 36.11685 -90.65393 31895 ft 413 kts 271°
2026-04-26 23:31 36.11530 -90.72496 31893 ft 413 kts 271°
2026-04-26 23:32 36.11371 -90.79601 31883 ft 413 kts 271°
2026-04-26 23:32 36.11207 -90.86711 31893 ft 413 kts 271°
2026-04-26 23:33 36.11040 -90.93811 31896 ft 413 kts 271°
2026-04-26 23:33 36.11282 -91.00890 31895 ft 412 kts 275°
2026-04-26 23:34 36.11550 -91.07927 31891 ft 412 kts 275°
2026-04-26 23:34 36.11799 -91.15003 31887 ft 412 kts 275°
2026-04-26 23:35 36.12043 -91.22080 31897 ft 412 kts 275°
2026-04-26 23:35 36.12283 -91.29168 31883 ft 412 kts 275°
2026-04-26 23:36 36.12517 -91.36236 31883 ft 411 kts 275°
2026-04-26 23:36 36.12748 -91.43308 31888 ft 412 kts 275°
2026-04-26 23:37 36.12975 -91.50386 31883 ft 412 kts 275°
2026-04-26 23:37 36.13205 -91.57456 31881 ft 411 kts 274°
2026-04-26 23:38 36.13434 -91.64523 31872 ft 410 kts 274°
2026-04-26 23:38 36.13659 -91.71583 31880 ft 410 kts 274°
2026-04-26 23:39 36.13880 -91.78635 31876 ft 410 kts 274°
2026-04-26 23:39 36.14097 -91.85689 31876 ft 411 kts 274°
2026-04-26 23:40 36.14310 -91.92752 31857 ft 411 kts 275°
2026-04-26 23:40 36.14518 -91.99806 31866 ft 411 kts 275°
2026-04-26 23:41 36.14723 -92.06872 31868 ft 411 kts 275°
2026-04-26 23:41 36.14924 -92.13956 31864 ft 412 kts 275°
2026-04-26 23:42 36.15120 -92.21026 31867 ft 412 kts 275°
2026-04-26 23:42 36.15407 -92.31634 31855 ft 411 kts 274°
2026-04-26 23:43 36.15592 -92.38659 31864 ft 411 kts 274°
2026-04-26 23:43 36.15774 -92.45724 31857 ft 411 kts 274°
2026-04-26 23:44 36.15952 -92.52804 31860 ft 411 kts 274°
2026-04-26 23:44 36.16126 -92.59884 31855 ft 412 kts 274°
2026-04-26 23:45 36.16295 -92.66950 31856 ft 411 kts 274°
2026-04-26 23:45 36.16459 -92.74013 31854 ft 409 kts 274°
2026-04-26 23:46 36.16620 -92.81054 31840 ft 410 kts 274°
2026-04-26 23:46 36.16776 -92.88102 31853 ft 410 kts 274°
2026-04-26 23:47 36.16928 -92.95145 31857 ft 410 kts 274°
2026-04-26 23:47 36.17077 -93.02189 31863 ft 409 kts 274°
2026-04-26 23:48 36.17220 -93.09223 31870 ft 405 kts 274°
2026-04-26 23:48 36.17358 -93.16171 31871 ft 404 kts 274°
2026-04-26 23:49 36.17492 -93.23117 31872 ft 403 kts 274°
2026-04-26 23:49 36.17622 -93.30064 31858 ft 404 kts 274°
2026-04-26 23:50 36.17748 -93.37004 31854 ft 404 kts 274°
2026-04-26 23:50 36.17869 -93.43908 31842 ft 404 kts 273°
2026-04-26 23:51 36.17987 -93.50847 31833 ft 403 kts 273°
2026-04-26 23:51 36.18100 -93.57793 31816 ft 404 kts 273°
2026-04-26 23:52 36.18210 -93.64738 31817 ft 404 kts 273°
2026-04-26 23:52 36.18316 -93.71687 31814 ft 403 kts 273°
2026-04-26 23:53 36.18418 -93.78629 31818 ft 404 kts 273°
2026-04-26 23:53 36.18515 -93.85572 31825 ft 403 kts 273°
2026-04-26 23:54 36.18609 -93.92500 31835 ft 403 kts 272°
2026-04-26 23:54 36.18698 -93.99433 31834 ft 403 kts 272°
2026-04-26 23:55 36.18784 -94.06356 31842 ft 402 kts 272°
2026-04-26 23:55 36.18865 -94.13283 31844 ft 402 kts 272°
2026-04-26 23:56 36.18943 -94.20201 31807 ft 402 kts 272°
2026-04-26 23:56 36.19017 -94.27205 31813 ft 409 kts 271°
2026-04-26 23:57 36.19088 -94.34257 31823 ft 409 kts 271°
2026-04-26 23:57 36.19154 -94.41298 31820 ft 409 kts 271°
2026-04-26 23:58 36.19216 -94.48298 31820 ft 409 kts 271°
2026-04-26 23:58 36.19275 -94.55349 31824 ft 409 kts 271°
2026-04-26 23:59 36.19329 -94.62421 31812 ft 414 kts 270°
2026-04-26 23:59 36.19380 -94.69563 31837 ft 415 kts 270°
2026-04-27 00:00 36.19425 -94.76701 31826 ft 415 kts 270°
2026-04-27 00:00 36.19468 -94.83849 31824 ft 415 kts 270°
2026-04-27 00:01 36.19506 -94.90988 31812 ft 415 kts 270°
2026-04-27 00:01 36.19540 -94.98133 31818 ft 415 kts 270°
2026-04-27 00:02 36.19569 -95.05259 31786 ft 413 kts 270°
2026-04-27 00:02 36.19594 -95.12343 31773 ft 413 kts 270°
2026-04-27 00:03 36.19615 -95.19484 31753 ft 413 kts 270°
2026-04-27 00:03 36.19632 -95.26558 31747 ft 413 kts 270°
2026-04-27 00:04 36.19644 -95.33669 31749 ft 414 kts 270°
2026-04-27 00:04 36.19653 -95.40750 31737 ft 406 kts 270°
2026-04-27 00:05 36.19659 -95.47683 31730 ft 405 kts 270°
2026-04-27 00:05 36.19661 -95.54709 31728 ft 406 kts 270°
2026-04-27 00:06 36.19659 -95.61690 31731 ft 406 kts 270°
2026-04-27 00:06 36.19653 -95.68674 31721 ft 406 kts 270°
2026-04-27 00:07 36.19644 -95.75621 31723 ft 400 kts 270°
2026-04-27 00:07 36.19156 -95.82386 31726 ft 399 kts 262°
2026-04-27 00:08 36.18273 -95.89179 31718 ft 399 kts 262°
2026-04-27 00:08 36.17384 -95.95965 31720 ft 399 kts 262°
2026-04-27 00:09 36.16490 -96.02749 31721 ft 400 kts 262°
2026-04-27 00:09 36.15592 -96.09532 31709 ft 400 kts 262°
2026-04-27 00:10 36.14687 -96.16340 31671 ft 397 kts 262°
2026-04-27 00:10 36.14239 -96.19703 30897 ft 399 kts 262°
2026-04-27 00:10 36.13784 -96.23104 30073 ft 402 kts 262°
2026-04-27 00:11 36.13325 -96.26529 29181 ft 405 kts 262°
2026-04-27 00:11 36.12862 -96.29976 28233 ft 408 kts 262°
2026-04-27 00:11 36.12553 -96.32278 27599 ft 410 kts 261°
2026-04-27 00:11 36.12082 -96.35770 26644 ft 413 kts 261°
2026-04-27 00:12 36.11606 -96.39290 25685 ft 417 kts 261°
2026-04-27 00:12 36.10964 -96.44033 24439 ft 421 kts 261°
2026-04-27 00:12 36.10642 -96.46399 23904 ft 421 kts 261°
2026-04-27 00:12 36.10157 -96.49964 23275 ft 417 kts 261°
2026-04-27 00:13 36.09677 -96.53485 22503 ft 414 kts 260°
2026-04-27 00:13 36.09199 -96.56987 21783 ft 411 kts 260°
2026-04-27 00:13 36.08725 -96.60453 21082 ft 408 kts 260°
2026-04-27 00:13 36.08259 -96.63857 20862 ft 394 kts 260°
2026-04-27 00:14 36.07809 -96.67127 20720 ft 379 kts 260°
2026-04-27 00:14 36.07375 -96.70283 20589 ft 366 kts 260°
2026-04-27 00:14 36.06956 -96.73324 20468 ft 353 kts 260°
2026-04-27 00:14 36.06549 -96.76270 20359 ft 341 kts 260°
2026-04-27 00:15 36.06155 -96.79111 20255 ft 330 kts 260°
2026-04-27 00:15 36.05775 -96.81858 20159 ft 319 kts 260°
2026-04-27 00:15 36.05397 -96.84579 20068 ft 328 kts 260°
2026-04-27 00:15 36.05006 -96.87389 19934 ft 335 kts 260°
2026-04-27 00:16 36.04608 -96.90242 19604 ft 338 kts 260°
2026-04-27 00:16 36.04209 -96.93102 19242 ft 338 kts 260°
2026-04-27 00:16 36.03810 -96.95955 18855 ft 336 kts 260°
2026-04-27 00:16 36.03411 -96.98801 18482 ft 335 kts 260°
2026-04-27 00:17 36.03014 -97.01628 18111 ft 334 kts 260°
2026-04-27 00:17 36.02618 -97.04448 17705 ft 332 kts 260°
2026-04-27 00:17 36.02222 -97.07253 17312 ft 331 kts 260°
2026-04-27 00:17 36.01830 -97.10036 16939 ft 329 kts 260°
2026-04-27 00:18 36.01352 -97.12789 16450 ft 329 kts 250°
2026-04-27 00:18 36.00187 -97.15223 16000 ft 332 kts 231°
2026-04-27 00:18 35.98536 -97.17215 15580 ft 331 kts 226°
2026-04-27 00:18 35.96850 -97.19154 15129 ft 331 kts 226°
2026-04-27 00:19 35.95154 -97.21071 14672 ft 331 kts 226°
2026-04-27 00:19 35.93449 -97.22976 14210 ft 331 kts 225°
2026-04-27 00:19 35.91740 -97.24873 13820 ft 329 kts 225°
2026-04-27 00:19 35.90080 -97.26706 13807 ft 314 kts 225°
2026-04-27 00:20 35.88448 -97.28508 13288 ft 316 kts 225°
2026-04-27 00:20 35.86793 -97.30331 12632 ft 322 kts 225°
2026-04-27 00:20 35.85113 -97.32178 12123 ft 324 kts 225°
2026-04-27 00:20 35.83434 -97.34027 11612 ft 325 kts 225°
2026-04-27 00:21 35.81746 -97.35882 11150 ft 324 kts 225°
2026-04-27 00:21 35.80070 -97.37723 10719 ft 322 kts 225°
2026-04-27 00:21 35.78368 -97.39526 10141 ft 322 kts 221°
2026-04-27 00:21 35.76594 -97.41166 9541 ft 316 kts 220°
2026-04-27 00:22 35.74865 -97.42779 8908 ft 309 kts 220°
2026-04-27 00:22 35.73171 -97.44368 8288 ft 303 kts 220°
2026-04-27 00:22 35.71516 -97.45927 7699 ft 297 kts 220°
2026-04-27 00:22 35.69895 -97.47456 7127 ft 291 kts 219°
2026-04-27 00:23 35.68300 -97.48960 6605 ft 287 kts 219°
2026-04-27 00:23 35.66759 -97.50413 6462 ft 269 kts 219°
2026-04-27 00:23 35.65342 -97.51748 6483 ft 245 kts 219°
2026-04-27 00:23 35.64048 -97.52967 6478 ft 224 kts 219°
2026-04-27 00:24 35.62865 -97.54082 6497 ft 203 kts 220°
2026-04-27 00:24 35.61780 -97.55103 6496 ft 192 kts 219°
2026-04-27 00:24 35.60724 -97.56097 6486 ft 189 kts 219°
2026-04-27 00:24 35.59743 -97.57020 6464 ft 168 kts 220°
2026-04-27 00:25 35.58845 -97.57864 6239 ft 159 kts 219°
2026-04-27 00:25 35.57955 -97.58701 6010 ft 163 kts 218°
2026-04-27 00:25 35.57047 -97.59555 5781 ft 166 kts 218°
2026-04-27 00:25 35.56063 -97.60281 5488 ft 167 kts 196°
2026-04-27 00:26 35.54903 -97.60461 5163 ft 168 kts 189°
2026-04-27 00:26 35.53709 -97.60548 4513 ft 182 kts 181°
2026-04-27 00:26 35.52435 -97.60456 3903 ft 177 kts 179°
2026-04-27 00:26 35.51237 -97.60333 3323 ft 167 kts 177°
2026-04-27 00:27 35.50128 -97.60256 2785 ft 157 kts 181°
2026-04-27 00:27 35.49102 -97.60228 2508 ft 138 kts 182°
2026-04-27 00:27 35.48141 -97.60251 2059 ft 137 kts 181°
2026-04-27 00:27 35.47174 -97.60255 1854 ft 143 kts 181°
2026-04-27 00:28 35.46201 -97.60292 1857 ft 139 kts 179°
2026-04-27 00:28 35.45196 -97.60371 1844 ft 154 kts 183°
2026-04-27 00:28 35.44098 -97.60497 1897 ft 162 kts 184°
2026-04-27 00:28 35.42950 -97.60532 1870 ft 162 kts 177°
2026-04-27 00:29 35.41902 -97.60613 1627 ft 139 kts 180°
2026-04-27 00:29 35.41000 -97.60598 1456 ft 123 kts 174°
2026-04-27 00:29 35.40162 -97.60568 1301 ft 112 kts 179°
2026-04-27 00:29 35.39569 -97.60568 1292 ft 68 kts 179°
2026-04-27 00:30 35.39250 -97.60560 1298 ft 28 kts 157°
2026-04-27 00:30 35.39218 -97.60448 1299 ft 13 kts 90°
2026-04-27 00:30 35.39217 -97.60314 1301 ft 21 kts 90°
2026-04-27 00:30 35.39218 -97.60115 1300 ft 25 kts 90°
2026-04-27 00:31 35.39224 -97.59908 1300 ft 22 kts 71°
2026-04-27 00:31 35.39323 -97.59837 1299 ft 18 kts 350°
2026-04-27 00:31 35.39411 -97.59934 1299 ft 18 kts 288°
2026-04-27 00:31 35.39437 -97.60043 1298 ft 5 kts 320°
2026-04-27 00:32 35.39469 -97.60049 1297 ft 6 kts 354°
2026-04-27 00:32 35.39498 -97.60049 1297 ft 2 kts 32°
2026-04-27 00:32 35.39499 -97.60046 1297 ft 0 kts 62°
2026-04-27 00:32 35.39501 -97.60029 1297 ft 4 kts 81°
2026-04-27 00:33 35.39507 -97.59997 1298 ft 4 kts 76°
2026-04-27 00:33 35.39508 -97.59986 1298 ft 0 kts 82°
2026-04-27 00:33 35.39509 -97.59978 1298 ft 0 kts 82°